Year,Month,Day,Hour,Minute,Value (Times are PST for temperature in C)
2008,07,24,08,17,13.70
2008,07,24,08,18,13.70
2008,07,24,08,19,13.80
2008,07,24,08,20,13.80
2008,07,24,08,21,13.90
2008,07,24,08,22,13.90
2008,07,24,08,23,13.90
2008,07,24,08,24,13.90
2008,07,24,08,25,14.00
2008,07,24,08,26,14.00
2008,07,24,08,27,14.10
2008,07,24,08,28,14.10
2008,07,24,08,29,14.20
2008,07,24,08,30,14.20
2008,07,24,08,31,14.20
2008,07,24,08,32,14.20
2008,07,24,08,33,14.20
2008,07,24,08,34,14.20
2008,07,24,08,35,14.10
2008,07,24,08,36,14.20
2008,07,24,08,37,14.20
2008,07,24,08,38,14.10
2008,07,24,08,39,14.10
2008,07,24,08,40,14.10
2008,07,24,08,41,14.10
2008,07,24,08,42,14.20
2008,07,24,08,43,14.20
2008,07,24,08,44,14.20
2008,07,24,08,45,14.20
2008,07,24,08,46,14.20
2008,07,24,08,47,14.20
2008,07,24,08,48,14.10
2008,07,24,08,49,14.10
2008,07,24,08,50,14.10
2008,07,24,08,51,14.20
2008,07,24,08,52,14.30
2008,07,24,08,53,14.30
2008,07,24,08,54,14.40
2008,07,24,08,55,14.40
2008,07,24,08,56,14.50
2008,07,24,08,57,14.60
2008,07,24,08,58,14.60
2008,07,24,08,59,14.60
2008,07,24,09,00,14.60
2008,07,24,09,01,14.60
2008,07,24,09,02,14.60
2008,07,24,09,03,14.70
2008,07,24,09,04,14.80
2008,07,24,09,05,14.90
2008,07,24,09,06,15.00
2008,07,24,09,07,15.00
2008,07,24,09,08,15.00
2008,07,24,09,09,15.20
2008,07,24,09,10,15.20
2008,07,24,09,11,15.20
2008,07,24,09,12,15.20
2008,07,24,09,13,15.30
2008,07,24,09,14,15.30
2008,07,24,09,15,15.40
2008,07,24,09,16,15.50
2008,07,24,09,17,15.60
2008,07,24,09,18,15.60
2008,07,24,09,19,15.60
2008,07,24,09,20,15.70
2008,07,24,09,21,15.70
2008,07,24,09,22,15.70
2008,07,24,09,23,15.70
2008,07,24,09,24,15.70
2008,07,24,09,25,15.70
2008,07,24,09,26,15.70
2008,07,24,09,27,15.70
2008,07,24,09,28,15.70
2008,07,24,09,29,15.60
2008,07,24,09,30,15.60
2008,07,24,09,31,15.50
2008,07,24,09,32,15.50
2008,07,24,09,33,15.40
2008,07,24,09,34,15.40
2008,07,24,09,35,15.20
2008,07,24,09,36,15.20
2008,07,24,09,37,15.30
2008,07,24,09,38,15.30
2008,07,24,09,39,15.30
2008,07,24,09,40,15.30
2008,07,24,09,41,15.30
2008,07,24,09,42,15.30
2008,07,24,09,43,15.30
2008,07,24,09,44,15.30
2008,07,24,09,45,15.30
2008,07,24,09,46,15.20
2008,07,24,09,47,15.20
2008,07,24,09,48,15.30
2008,07,24,09,49,15.30
2008,07,24,09,50,15.30
2008,07,24,09,51,15.30
2008,07,24,09,52,15.30
2008,07,24,09,53,15.30
2008,07,24,09,54,15.30
2008,07,24,09,55,15.30
2008,07,24,09,56,15.30
2008,07,24,09,57,15.40
2008,07,24,09,58,15.40
2008,07,24,09,59,15.40
2008,07,24,10,00,15.50
2008,07,24,10,01,15.60
2008,07,24,10,02,15.60
2008,07,24,10,03,15.60
2008,07,24,10,04,15.60
2008,07,24,10,05,15.50
2008,07,24,10,06,15.50
2008,07,24,10,07,15.50
2008,07,24,10,08,15.50
2008,07,24,10,09,15.50
2008,07,24,10,10,15.50
2008,07,24,10,11,15.60
2008,07,24,10,12,15.60
2008,07,24,10,13,15.70
2008,07,24,10,14,15.80
2008,07,24,10,15,15.80
2008,07,24,10,16,15.80
2008,07,24,10,17,15.80
2008,07,24,10,18,15.80
2008,07,24,10,19,15.80
2008,07,24,10,20,15.80
2008,07,24,10,21,15.90
2008,07,24,10,22,15.90
2008,07,24,10,23,15.80
2008,07,24,10,24,15.70
2008,07,24,10,25,15.70
2008,07,24,10,26,15.70
2008,07,24,10,27,15.80
2008,07,24,10,28,15.80
2008,07,24,10,29,15.90
2008,07,24,10,30,15.90
2008,07,24,10,31,15.90
2008,07,24,10,32,16.00
2008,07,24,10,33,16.00
2008,07,24,10,34,16.00
2008,07,24,10,35,16.10
2008,07,24,10,36,16.20
2008,07,24,10,37,16.30
2008,07,24,10,38,16.40
2008,07,24,10,39,16.50
2008,07,24,10,40,16.60
2008,07,24,10,41,16.50
2008,07,24,10,42,16.60
2008,07,24,10,43,16.70
2008,07,24,10,44,16.70
2008,07,24,10,45,16.80
2008,07,24,10,46,16.90
2008,07,24,10,47,16.90
2008,07,24,10,48,17.10
2008,07,24,10,49,17.20
2008,07,24,10,50,17.20
2008,07,24,10,51,17.20
2008,07,24,10,52,17.20
2008,07,24,10,53,17.10
2008,07,24,10,54,17.10
2008,07,24,10,55,17.20
2008,07,24,10,56,17.20
2008,07,24,10,57,17.30
2008,07,24,10,58,17.30
2008,07,24,10,59,17.40
2008,07,24,11,00,17.40
2008,07,24,11,01,17.40
2008,07,24,11,02,17.40
2008,07,24,11,03,17.30
2008,07,24,11,04,17.30
2008,07,24,11,05,17.30
2008,07,24,11,06,17.30
2008,07,24,11,07,17.40
2008,07,24,11,08,17.50
2008,07,24,11,09,17.50
2008,07,24,11,10,17.50
2008,07,24,11,11,17.60
2008,07,24,11,12,17.60
2008,07,24,11,13,17.60
2008,07,24,11,14,17.70
2008,07,24,11,15,17.70
2008,07,24,11,16,17.80
2008,07,24,11,17,17.90
2008,07,24,11,18,17.90
2008,07,24,11,19,17.90
2008,07,24,11,20,18.00
2008,07,24,11,21,18.00
2008,07,24,11,22,18.10
2008,07,24,11,23,18.00
2008,07,24,11,24,17.90
2008,07,24,11,25,17.90
2008,07,24,11,26,17.90
2008,07,24,11,27,17.80
2008,07,24,11,28,17.70
2008,07,24,11,29,17.60
2008,07,24,11,30,17.70
2008,07,24,11,31,17.70
2008,07,24,11,32,17.70
2008,07,24,11,33,17.70
2008,07,24,11,34,17.70
2008,07,24,11,35,17.80
2008,07,24,11,36,17.80
2008,07,24,11,37,17.90
2008,07,24,11,38,18.00
2008,07,24,11,39,18.00
2008,07,24,11,40,17.90
2008,07,24,11,41,17.90
2008,07,24,11,42,17.90
2008,07,24,11,43,17.90
2008,07,24,11,44,17.90
2008,07,24,11,45,17.90
2008,07,24,11,46,17.90
2008,07,24,11,47,18.00
2008,07,24,11,48,18.10
2008,07,24,11,49,18.10
2008,07,24,11,50,18.10
2008,07,24,11,51,18.20
2008,07,24,11,52,18.20
2008,07,24,11,53,18.20
2008,07,24,11,54,18.10
2008,07,24,11,55,18.00
2008,07,24,11,56,17.90
2008,07,24,11,57,17.90
2008,07,24,11,58,17.90
2008,07,24,11,59,17.90
2008,07,24,12,00,17.80
2008,07,24,12,01,17.80
2008,07,24,12,02,17.80
2008,07,24,12,03,17.80
2008,07,24,12,04,17.80
2008,07,24,12,05,17.90
2008,07,24,12,06,18.00
2008,07,24,12,07,18.20
2008,07,24,12,08,18.20
2008,07,24,12,09,18.10
2008,07,24,12,10,18.10
2008,07,24,12,11,18.20
2008,07,24,12,12,18.30
2008,07,24,12,13,18.30
2008,07,24,12,14,18.30
2008,07,24,12,15,18.40
2008,07,24,12,16,18.40
2008,07,24,12,17,18.40
2008,07,24,12,18,18.50
2008,07,24,12,19,18.40
2008,07,24,12,20,18.50
2008,07,24,12,21,18.50
2008,07,24,12,22,18.40
2008,07,24,12,23,18.50
2008,07,24,12,24,18.60
2008,07,24,12,25,18.70
2008,07,24,12,26,18.80
2008,07,24,12,27,18.80
2008,07,24,12,28,18.80
2008,07,24,12,29,18.80
2008,07,24,12,30,18.80
2008,07,24,12,31,18.70
2008,07,24,12,32,18.80
2008,07,24,12,33,19.00
2008,07,24,12,34,19.10
2008,07,24,12,35,19.10
2008,07,24,12,36,19.10
2008,07,24,12,37,19.10
2008,07,24,12,38,19.20
2008,07,24,12,39,19.30
2008,07,24,12,40,19.40
2008,07,24,12,41,19.40
2008,07,24,12,42,19.40
2008,07,24,12,43,19.30
2008,07,24,12,44,19.40
2008,07,24,12,45,19.50
2008,07,24,12,46,19.60
2008,07,24,12,47,19.60
2008,07,24,12,48,19.60
2008,07,24,12,49,19.60
2008,07,24,12,50,19.60
2008,07,24,12,51,19.60
2008,07,24,12,52,19.50
2008,07,24,12,53,19.50
2008,07,24,12,54,19.50
2008,07,24,12,55,19.50
2008,07,24,12,56,19.60
2008,07,24,12,57,19.70
2008,07,24,12,58,19.80
2008,07,24,12,59,19.80
2008,07,24,13,00,19.90
2008,07,24,13,01,19.90
2008,07,24,13,02,19.80
2008,07,24,13,03,19.80
2008,07,24,13,04,19.80
2008,07,24,13,05,19.80
2008,07,24,13,06,19.80
2008,07,24,13,07,19.70
2008,07,24,13,08,19.70
2008,07,24,13,09,19.80
2008,07,24,13,10,19.90
2008,07,24,13,11,20.00
2008,07,24,13,12,20.00
2008,07,24,13,13,20.10
2008,07,24,13,14,20.00
2008,07,24,13,15,19.80
2008,07,24,13,16,19.70
2008,07,24,13,17,19.70
2008,07,24,13,18,19.80
2008,07,24,13,19,19.90
2008,07,24,13,20,20.00
2008,07,24,13,21,20.20
2008,07,24,13,22,20.40
2008,07,24,13,23,20.30
2008,07,24,13,24,20.30
2008,07,24,13,25,20.40
2008,07,24,13,26,20.40
2008,07,24,13,27,20.40
2008,07,24,13,28,20.30
2008,07,24,13,29,20.30
2008,07,24,13,30,20.30
2008,07,24,13,31,20.40
2008,07,24,13,32,20.50
2008,07,24,13,33,20.60
2008,07,24,13,34,20.70
2008,07,24,13,35,20.80
2008,07,24,13,36,20.70
2008,07,24,13,37,20.70
2008,07,24,13,38,20.70
2008,07,24,13,39,20.70
2008,07,24,13,40,20.60
2008,07,24,13,41,20.50
2008,07,24,13,42,20.30
2008,07,24,13,43,20.30
2008,07,24,13,44,20.30
2008,07,24,13,45,20.40
2008,07,24,13,46,20.40
2008,07,24,13,47,20.20
2008,07,24,13,48,20.20
2008,07,24,13,49,20.20
2008,07,24,13,50,20.20
2008,07,24,13,51,20.30
2008,07,24,13,52,20.30
2008,07,24,13,53,20.30
2008,07,24,13,54,20.30
2008,07,24,13,55,20.30
2008,07,24,13,56,20.40
2008,07,24,13,57,20.50
2008,07,24,13,58,20.60
2008,07,24,13,59,20.60
2008,07,24,14,00,20.60
2008,07,24,14,01,20.70
2008,07,24,14,02,20.70
2008,07,24,14,03,20.70
2008,07,24,14,04,20.80
2008,07,24,14,05,20.90
2008,07,24,14,06,20.90
2008,07,24,14,07,20.90
2008,07,24,14,08,20.80
2008,07,24,14,09,20.60
2008,07,24,14,10,20.40
2008,07,24,14,11,20.30
2008,07,24,14,12,20.30
2008,07,24,14,13,20.40
2008,07,24,14,14,20.40
2008,07,24,14,15,20.50
2008,07,24,14,16,20.60
2008,07,24,14,17,20.70
2008,07,24,14,18,20.60
2008,07,24,14,19,20.40
2008,07,24,14,20,20.30
2008,07,24,14,21,20.10
2008,07,24,14,22,20.10
2008,07,24,14,23,20.20
2008,07,24,14,24,20.30
2008,07,24,14,25,20.30
2008,07,24,14,26,20.40
2008,07,24,14,27,20.30
2008,07,24,14,28,20.30
2008,07,24,14,29,20.40
2008,07,24,14,30,20.40
2008,07,24,14,31,20.40
2008,07,24,14,32,20.40
2008,07,24,14,33,20.60
2008,07,24,14,34,20.60
2008,07,24,14,35,20.70
2008,07,24,14,36,20.70
2008,07,24,14,37,20.80
2008,07,24,14,38,21.00
2008,07,24,14,39,21.00
2008,07,24,14,40,20.80
2008,07,24,14,41,20.70
2008,07,24,14,42,20.60
2008,07,24,14,43,20.50
2008,07,24,14,44,20.50
2008,07,24,14,45,20.60
2008,07,24,14,46,20.80
2008,07,24,14,47,20.90
2008,07,24,14,48,20.80
2008,07,24,14,49,20.80
2008,07,24,14,50,20.90
2008,07,24,14,51,20.90
2008,07,24,14,52,20.90
2008,07,24,14,53,20.80
2008,07,24,14,54,20.60
2008,07,24,14,55,20.50
2008,07,24,14,56,20.40
2008,07,24,14,57,20.50
2008,07,24,14,58,20.50
2008,07,24,14,59,20.50
2008,07,24,15,00,20.50
2008,07,24,15,01,20.50
2008,07,24,15,02,20.60
2008,07,24,15,03,20.80
2008,07,24,15,04,20.90
2008,07,24,15,05,21.00
2008,07,24,15,06,21.00
2008,07,24,15,07,20.90
2008,07,24,15,08,20.80
2008,07,24,15,09,20.90
2008,07,24,15,10,21.00
2008,07,24,15,11,21.00
2008,07,24,15,12,21.20
2008,07,24,15,13,21.20
2008,07,24,15,14,21.20
2008,07,24,15,15,21.30
2008,07,24,15,16,21.40
2008,07,24,15,17,21.40
2008,07,24,15,18,21.40
2008,07,24,15,19,21.50
2008,07,24,15,20,21.60
2008,07,24,15,21,21.70
2008,07,24,15,22,21.80
2008,07,24,15,23,21.80
2008,07,24,15,24,21.50
2008,07,24,15,25,21.40
2008,07,24,15,26,21.40
2008,07,24,15,27,21.40
2008,07,24,15,28,21.30
2008,07,24,15,29,21.20
2008,07,24,15,30,21.10
2008,07,24,15,31,21.10
2008,07,24,15,32,21.20
2008,07,24,15,33,21.20
2008,07,24,15,34,21.30
2008,07,24,15,35,21.40
2008,07,24,15,36,21.50
2008,07,24,15,37,21.60
2008,07,24,15,38,21.70
2008,07,24,15,39,21.80
2008,07,24,15,40,21.60
2008,07,24,15,41,21.50
2008,07,24,15,42,21.50
2008,07,24,15,43,21.50
2008,07,24,15,44,21.30
2008,07,24,15,45,21.00
2008,07,24,15,46,20.90
2008,07,24,15,47,20.80
2008,07,24,15,48,20.70
2008,07,24,15,49,20.80
2008,07,24,15,50,20.90
2008,07,24,15,51,21.00
2008,07,24,15,52,21.10
2008,07,24,15,53,21.20
2008,07,24,15,54,21.30
2008,07,24,15,55,21.20
2008,07,24,15,56,21.00
2008,07,24,15,57,20.90
2008,07,24,15,58,21.00
2008,07,24,15,59,21.00
2008,07,24,16,00,21.00
2008,07,24,16,01,20.90
2008,07,24,16,02,20.80
2008,07,24,16,03,20.90
2008,07,24,16,04,20.90
2008,07,24,16,05,20.90
2008,07,24,16,06,20.90
2008,07,24,16,07,20.90
2008,07,24,16,08,20.90
2008,07,24,16,09,20.90
2008,07,24,16,10,20.80
2008,07,24,16,11,20.80
2008,07,24,16,12,20.90
2008,07,24,16,13,20.90
2008,07,24,16,14,20.90
2008,07,24,16,15,21.00
2008,07,24,16,16,21.10
2008,07,24,16,17,21.10
2008,07,24,16,18,21.10
2008,07,24,16,19,21.10
2008,07,24,16,20,21.10
2008,07,24,16,21,21.10
2008,07,24,16,22,21.10
2008,07,24,16,23,21.20
2008,07,24,16,24,21.20
2008,07,24,16,25,21.20
2008,07,24,16,26,21.10
2008,07,24,16,27,21.00
2008,07,24,16,28,21.00
2008,07,24,16,29,21.10
2008,07,24,16,30,21.20
2008,07,24,16,31,21.30
2008,07,24,16,32,21.40
2008,07,24,16,33,21.50
2008,07,24,16,34,21.50
2008,07,24,16,35,21.50
2008,07,24,16,36,21.50
2008,07,24,16,37,21.60
2008,07,24,16,38,21.60
2008,07,24,16,39,21.70
2008,07,24,16,40,21.80
2008,07,24,16,41,21.70
2008,07,24,16,42,21.70
2008,07,24,16,43,21.70
2008,07,24,16,44,21.60
2008,07,24,16,45,21.60
2008,07,24,16,46,21.50
2008,07,24,16,47,21.50
2008,07,24,16,48,21.40
2008,07,24,16,49,21.30
2008,07,24,16,50,21.20
2008,07,24,16,51,21.10
2008,07,24,16,52,21.10
2008,07,24,16,53,21.10
2008,07,24,16,54,21.20
2008,07,24,16,55,21.30
2008,07,24,16,56,21.30
2008,07,24,16,57,21.40
2008,07,24,16,58,21.30
2008,07,24,16,59,21.30
2008,07,24,17,00,21.20
2008,07,24,17,01,21.00
2008,07,24,17,02,20.90
2008,07,24,17,03,20.80
2008,07,24,17,04,20.70
2008,07,24,17,05,20.60
2008,07,24,17,06,20.60
2008,07,24,17,07,20.60
2008,07,24,17,08,20.60
2008,07,24,17,09,20.60
2008,07,24,17,10,20.50
2008,07,24,17,11,20.40
2008,07,24,17,12,20.50
2008,07,24,17,13,20.60
2008,07,24,17,14,20.60
2008,07,24,17,15,20.70
2008,07,24,17,16,20.70
2008,07,24,17,17,20.60
2008,07,24,17,18,20.60
2008,07,24,17,19,20.50
2008,07,24,17,20,20.50
2008,07,24,17,21,20.50
2008,07,24,17,22,20.50
2008,07,24,17,23,20.70
2008,07,24,17,24,20.80
2008,07,24,17,25,20.90
2008,07,24,17,26,20.90
2008,07,24,17,27,21.00
2008,07,24,17,28,21.00
2008,07,24,17,29,21.10
2008,07,24,17,30,21.20
2008,07,24,17,31,21.10
2008,07,24,17,32,21.00
2008,07,24,17,33,20.80
2008,07,24,17,34,20.60
2008,07,24,17,35,20.50
2008,07,24,17,36,20.50
2008,07,24,17,37,20.50
2008,07,24,17,38,20.50
2008,07,24,17,39,20.60
2008,07,24,17,40,20.70
2008,07,24,17,41,20.70
2008,07,24,17,42,20.70
2008,07,24,17,43,20.70
2008,07,24,17,44,20.70
2008,07,24,17,45,20.70
2008,07,24,17,46,20.70
2008,07,24,17,47,20.80
2008,07,24,17,48,20.90
2008,07,24,17,49,20.90
2008,07,24,17,50,21.00
2008,07,24,17,51,21.10
2008,07,24,17,52,21.20
2008,07,24,17,53,21.20
2008,07,24,17,54,21.20
2008,07,24,17,55,21.10
2008,07,24,17,56,21.00
2008,07,24,17,57,21.00
2008,07,24,17,58,20.90
2008,07,24,17,59,20.90
2008,07,24,18,00,20.90
2008,07,24,18,01,21.00
2008,07,24,18,02,21.00
2008,07,24,18,03,21.10
2008,07,24,18,04,21.10
2008,07,24,18,05,21.10
2008,07,24,18,06,21.00
2008,07,24,18,07,20.90
2008,07,24,18,08,20.90
2008,07,24,18,09,20.80
2008,07,24,18,10,20.80
2008,07,24,18,11,20.80
2008,07,24,18,12,20.80
2008,07,24,18,13,20.90
2008,07,24,18,14,20.90
2008,07,24,18,15,20.80
2008,07,24,18,16,20.80
2008,07,24,18,17,20.90
2008,07,24,18,18,20.90
2008,07,24,18,19,20.80
2008,07,24,18,20,20.80
2008,07,24,18,21,20.70
2008,07,24,18,22,20.80
2008,07,24,18,23,20.80
2008,07,24,18,24,20.70
2008,07,24,18,25,20.70
2008,07,24,18,26,20.60
2008,07,24,18,27,20.50
2008,07,24,18,28,20.40
2008,07,24,18,29,20.40
2008,07,24,18,30,20.40
2008,07,24,18,31,20.50
2008,07,24,18,32,20.50
2008,07,24,18,33,20.50
2008,07,24,18,34,20.40
2008,07,24,18,35,20.30
2008,07,24,18,36,20.30
2008,07,24,18,37,20.20
2008,07,24,18,38,20.20
2008,07,24,18,39,20.20
2008,07,24,18,40,20.20
2008,07,24,18,41,20.20
2008,07,24,18,42,20.30
2008,07,24,18,43,20.30
2008,07,24,18,44,20.30
2008,07,24,18,45,20.30
2008,07,24,18,46,20.30
2008,07,24,18,47,20.30
2008,07,24,18,48,20.30
2008,07,24,18,49,20.40
2008,07,24,18,50,20.40
2008,07,24,18,51,20.40
2008,07,24,18,52,20.30
2008,07,24,18,53,20.20
2008,07,24,18,54,20.10
2008,07,24,18,55,20.00
2008,07,24,18,56,20.00
2008,07,24,18,57,19.90
2008,07,24,18,58,19.90
2008,07,24,18,59,19.90
2008,07,24,19,00,20.00
2008,07,24,19,01,20.00
2008,07,24,19,02,19.90
2008,07,24,19,03,19.90
2008,07,24,19,04,19.90
2008,07,24,19,05,19.90
2008,07,24,19,06,19.90
2008,07,24,19,07,19.90
2008,07,24,19,08,20.00
2008,07,24,19,09,20.00
2008,07,24,19,10,20.10
2008,07,24,19,11,20.10
2008,07,24,19,12,20.10
2008,07,24,19,13,20.10
2008,07,24,19,14,20.10
2008,07,24,19,15,20.10
2008,07,24,19,16,20.10
2008,07,24,19,17,20.10
2008,07,24,19,18,20.10
2008,07,24,19,19,20.10
2008,07,24,19,20,20.10
2008,07,24,19,21,20.10
2008,07,24,19,22,20.10
2008,07,24,19,23,20.20
2008,07,24,19,24,20.20
2008,07,24,19,25,20.20
2008,07,24,19,26,20.20
2008,07,24,19,27,20.20
2008,07,24,19,28,20.20
2008,07,24,19,29,20.30
2008,07,24,19,30,20.30
2008,07,24,19,31,20.30
2008,07,24,19,32,20.30
2008,07,24,19,33,20.30
2008,07,24,19,34,20.30
2008,07,24,19,35,20.30
2008,07,24,19,36,20.30
2008,07,24,19,37,20.30
2008,07,24,19,38,20.20
2008,07,24,19,39,20.20
2008,07,24,19,40,20.20
2008,07,24,19,41,20.10
2008,07,24,19,42,20.10
2008,07,24,19,43,20.10
2008,07,24,19,44,20.10
2008,07,24,19,45,20.10
2008,07,24,19,46,20.10
2008,07,24,19,47,20.10
2008,07,24,19,48,20.10
2008,07,24,19,49,20.10
2008,07,24,19,50,20.10
2008,07,24,19,51,20.10
2008,07,24,19,52,20.10
